TimeMST,TemperatureF,Dew PointF,Humidity,Sea Level PressureIn,VisibilityMPH,Wind Direction,Wind SpeedMPH,Gust SpeedMPH,PrecipitationIn,Events,Conditions,WindDirDegrees,DateUTC
12:53 AM,25.0,19.0,78,30.51,10.0,South,6.9,-,N/A,,Clear,170,2013-02-16 07:53:00
1:53 AM,25.0,19.0,78,30.52,10.0,South,6.9,-,N/A,,Clear,180,2013-02-16 08:53:00
2:53 AM,26.1,18.0,71,30.50,10.0,South,4.6,-,N/A,,Clear,180,2013-02-16 09:53:00
3:53 AM,24.1,17.1,75,30.49,10.0,South,4.6,-,N/A,,Clear,180,2013-02-16 10:53:00
4:53 AM,23.0,17.1,78,30.49,10.0,South,5.8,-,N/A,,Clear,190,2013-02-16 11:53:00
5:53 AM,21.9,16.0,78,30.49,10.0,SSE,8.1,-,N/A,,Clear,160,2013-02-16 12:53:00
6:53 AM,21.9,16.0,78,30.48,10.0,South,8.1,-,N/A,,Clear,170,2013-02-16 13:53:00
7:53 AM,21.9,16.0,78,30.47,9.0,South,9.2,-,N/A,,Clear,180,2013-02-16 14:53:00
8:53 AM,27.0,18.0,69,30.46,10.0,Calm,Calm,-,N/A,,Clear,0,2013-02-16 15:53:00
9:53 AM,30.0,21.0,69,30.44,9.0,South,4.6,-,N/A,,Clear,170,2013-02-16 16:53:00
10:53 AM,30.9,21.0,67,30.43,7.0,North,3.5,-,N/A,,Clear,350,2013-02-16 17:53:00
11:53 AM,32.0,21.9,66,30.40,5.0,Calm,Calm,-,N/A,,Haze,0,2013-02-16 18:53:00
12:53 PM,30.9,24.1,76,30.38,4.0,NW,4.6,-,N/A,,Haze,320,2013-02-16 19:53:00
1:53 PM,34.0,24.1,67,30.32,5.0,NNW,4.6,-,N/A,,Haze,330,2013-02-16 20:53:00
2:53 PM,34.0,24.1,67,30.28,5.0,NW,3.5,-,N/A,,Haze,320,2013-02-16 21:53:00
3:53 PM,34.0,25.0,70,30.26,4.0,NW,8.1,-,N/A,,Haze,320,2013-02-16 22:53:00
4:53 PM,32.0,23.0,69,30.24,4.0,NW,5.8,-,N/A,,Haze,310,2013-02-16 23:53:00
5:53 PM,28.9,23.0,78,30.23,3.0,NW,3.5,-,N/A,,Haze,320,2013-02-17 00:53:00
6:53 PM,30.0,21.9,72,30.20,6.0,Calm,Calm,-,N/A,,Haze,0,2013-02-17 01:53:00
7:53 PM,28.9,21.0,72,30.19,7.0,Calm,Calm,-,N/A,,Clear,0,2013-02-17 02:53:00
8:53 PM,27.0,21.0,78,30.16,7.0,Calm,Calm,-,N/A,,Clear,0,2013-02-17 03:53:00
9:53 PM,25.0,19.9,81,30.14,5.0,Calm,Calm,-,N/A,,Haze,0,2013-02-17 04:53:00
10:53 PM,27.0,21.0,78,30.10,5.0,Calm,Calm,-,N/A,,Haze,0,2013-02-17 05:53:00
11:53 PM,27.0,21.0,78,30.05,5.0,South,3.5,-,N/A,,Haze,190,2013-02-17 06:53:00